Regional Weather Roundup
Issued by NWS

Home | Current Version | Previous Version | Text Only | Print | Product List | Glossary Off
Versions: 1 2 3 4 5 6 7 8 9 10 11 12 13 14 15 16 17 18 19 20 21 22 23 24 25 26 27 28 29 30 31 32 33 34 35 36 37 38 39 40 41 42 43 44 45 46 47 48 49 50

000
ASUS43 KOAX 200402
RWRNE

WEATHER ROUNDUP FOR NEBRASKA
NATIONAL WEATHER SERVICE OMAHA NE
1100 PM CDT TUE AUG 19 2014

NOTES: SATELLITE DATA IS BEING USED TO AUGMENT CLOUD COVER ABOVE
       12000 FEET.
       "FAIR" INDICATES FEW OR NO CLOUDS BELOW 12,000 FEET WITH NO
       SIGNIFICANT WEATHER AND/OR OBSTRUCTIONS TO VISIBILITY.

  * THESE STATIONS DO NOT REPORT WEATHER SUCH AS RAIN...SNOW OR FOG.

NEZ001>004-019>022-054>056-200500-
NEBRASKA PANHANDLE

CITY           SKY/WX    TMP DP  RH WIND       PRES   REMARKS
SCOTTSBLUFF    CLOUDY    69  57  65 SE6       29.85R
ALLIANCE       MOCLDY    69  53  56 S13       29.81R
CHADRON        PTCLDY    76  49  38 NE7       29.75R
KIMBALL        MOCLDY    65  54  68 SE6       29.89S
SIDNEY         CLOUDY    66  58  75 SE12      29.88F
$$

NEZ057>060-069>072-079>082-200500-
SOUTHWEST NEBRASKA

CITY           SKY/WX    TMP DP  RH WIND       PRES   REMARKS
NORTH PLATTE   CLOUDY    73  68  84 SE10      29.78S
IMPERIAL       LGT RAIN  68  61  78 N14       29.84F
LEXINGTON      MOCLDY    75  67  76 SE7       29.78S
MCCOOK         CLOUDY    84  59  42 S8        29.78R THUNDER
OGALLALA       LGT RAIN  64  62  92 W14       29.89R
$$

NEZ005>010-023>029-035>040-094-200500-
NORTH CENTRAL NEBRASKA

CITY           SKY/WX    TMP DP  RH WIND       PRES   REMARKS
VALENTINE      CLOUDY    78  66  66 S16       29.80R
AINSWORTH      CLOUDY    74  66  75 SE9       29.81R
BROKEN BOW     CLOUDY    75  70  84 SE8       29.80R
O`NEILL        MOCLDY    74  68  79 SE8       29.81S
ORD            PTCLDY    73  69  87 SE5       29.78S
THEDFORD       CLOUDY    76  67  74 SE8       29.81F
$$

NEZ041-046>049-061>064-073>077-083>087-200500-
SOUTH CENTRAL NEBRASKA

CITY           SKY/WX    TMP DP  RH WIND       PRES   REMARKS
GRAND ISLAND   PTCLDY    76  69  79 SE7       29.80S
AURORA         PTCLDY    75  74  97 E5        29.79S
HASTINGS       MOCLDY    77  66  68 SE10      29.79S
HEBRON         PTCLDY    75  65  73 SE5       29.78S
HOLDREGE       MOCLDY    75  64  67 SE10      29.79R
KEARNEY *      MOCLDY    73  70  88 E8        29.79S
$$

NEZ011>018-030>034-042>045-200500-
NORTHEAST NEBRASKA

CITY           SKY/WX    TMP DP  RH WIND       PRES   REMARKS
NORFOLK        MOCLDY    72  65  78 SE7       29.81R
ALBION         CLEAR     73  66  79 SE6       29.81S
BLAIR          PTCLDY    74  65  74 E5        29.81S
COLUMBUS *     CLEAR     72  66  83 E8        29.81S
FREMONT        MOCLDY    76  65  70 E5        29.81S
TEKAMAH        MOCLDY    70  66  87 CALM      29.80S
WAYNE          MOCLDY    69  65  89 CALM      29.81S
$$

NEZ050>053-065>068-078-088>093-200500-
SOUTHEAST NEBRASKA

CITY           SKY/WX    TMP DP  RH WIND       PRES   REMARKS
LINCOLN        PTCLDY    79  70  74 SE7       29.79F
OMAHA EPPLEY   MOCLDY    77  64  64 SE6       29.80S
BEATRICE       CLEAR     77  73  87 SE5       29.78S
FALLS CITY     PTCLDY    76  73  91 E3        29.79R
NEBRASKA CITY  MOCLDY    76  70  82 SE6       29.80S
PLATTSMOUTH    MOCLDY    75  70  83 E5        29.79F
$$

NEZ044-045-051>053-067-200500-
OMAHA AREA

CITY           SKY/WX    TMP DP  RH WIND       PRES   REMARKS
OMAHA EPPLEY   MOCLDY    77  64  64 SE6       29.80S
BLAIR          PTCLDY    74  65  74 E5        29.81S
FREMONT        MOCLDY    76  65  70 E5        29.81S
MILLARD        MOCLDY    78  69  73 SE3       29.79S
OFFUTT AFB     PTCLDY    71  71  99 E5        29.79F
PLATTSMOUTH    MOCLDY    75  70  83 E5        29.79F
WAHOO          FAIR      72  66  81 E3        29.80S
$$


USA.gov is the U.S. government's official web portal to all federal, state and local government web resources and services.